Date,TemperatureHighF,TemperatureAvgF,TemperatureLowF,DewpointHighF,DewpointAvgF,DewpointLowF,HumidityHigh,HumidityAvg,HumidityLow,PressureMaxIn,PressureMinIn,WindSpeedMaxMPH,WindSpeedAvgMPH,GustSpeedMaxMPH,PrecipitationSumIn
2013-3-1,49.0,38.2,19.0,20.0,14.8,6.0,58,39,27,0.00,40.00,7,5,13,0.00
2013-3-2,56.0,43.9,28.0,24.0,21.2,15.0,61,42,28,0.00,40.00,7,5,16,0.00
2013-3-3,48.0,41.1,31.0,24.0,21.0,18.0,67,46,30,0.00,40.00,8,4,15,0.00
2013-3-4,49.0,38.7,30.0,31.0,22.7,11.0,93,55,26,0.00,40.00,11,6,24,0.00
2013-3-5,54.0,34.6,22.0,11.0,6.6,-9.0,50,33,7,0.00,40.00,8,4,12,0.00
2013-3-6,56.0,45.1,30.0,17.0,13.3,4.0,48,28,20,0.00,40.00,9,5,18,0.00
2013-3-7,58.0,48.4,32.0,18.0,11.1,7.0,43,24,13,0.00,40.00,8,5,16,0.00
2013-3-8,42.0,36.7,31.0,31.0,22.7,11.0,97,61,33,0.00,40.00,12,4,20,0.00
2013-3-9,33.0,26.5,21.0,29.0,23.4,16.0,97,88,80,0.00,40.00,6,3,20,0.04
2013-3-10,42.0,31.7,16.0,27.0,21.4,12.0,86,67,47,0.00,40.00,8,5,17,0.50
2013-3-11,50.0,35.7,22.0,27.0,22.7,18.0,84,62,40,0.00,40.00,7,4,13,0.14
2013-3-12,55.0,40.8,28.0,25.0,22.6,19.0,76,52,29,0.00,40.00,8,4,15,0.00
2013-3-13,59.0,45.2,31.0,26.0,22.0,18.0,72,44,20,0.00,40.00,7,5,13,0.00
2013-3-14,65.0,49.9,37.0,22.0,16.6,13.0,44,29,13,0.00,40.00,9,4,16,0.00
2013-3-15,66.0,52.3,38.0,21.0,16.1,12.0,39,25,15,0.00,40.00,10,5,23,0.00
2013-3-16,58.0,49.6,39.0,25.0,20.2,12.0,42,31,25,0.00,40.00,9,5,23,0.00
2013-3-17,53.0,41.9,33.0,29.0,18.3,3.0,69,42,21,0.00,40.00,12,6,35,0.00
2013-3-18,50.0,40.9,30.0,8.0,3.3,-6.0,35,22,10,0.00,40.00,16,8,34,0.00
2013-3-19,55.0,43.3,32.0,14.0,10.3,5.0,42,27,18,0.00,40.00,6,4,15,0.00
2013-3-20,52.0,40.0,29.0,25.0,16.2,10.0,52,39,22,0.00,40.00,8,4,26,0.00
2013-3-21,54.0,43.6,35.0,30.0,18.6,-7.0,73,43,13,0.00,40.00,16,7,39,0.00
2013-3-22,51.0,40.7,28.0,11.0,1.8,-14.0,39,22,6,0.00,40.00,17,7,45,0.00
2013-3-23,37.0,26.8,17.0,2.0,-5.2,-20.0,39,25,12,0.00,40.00,14,8,30,0.00
2013-3-24,40.0,25.3,10.0,-3.0,-5.7,-8.0,43,27,13,0.00,40.00,13,6,26,0.00
2013-3-25,47.0,29.9,14.0,0.0,-3.7,-10.0,44,26,9,0.00,40.00,7,5,20,0.00
2013-3-26,53.0,39.6,25.0,11.0,6.6,2.0,41,26,17,0.00,40.00,8,4,19,0.00
2013-3-27,60.0,47.0,35.0,22.0,11.9,3.0,45,27,10,0.00,40.00,10,6,21,0.00
2013-3-28,63.0,55.8,45.0,14.0,10.0,9.0,24,16,12,0.00,40.00,8,6,20,0.00
2013-3-29,61.0,49.5,37.0,22.0,16.7,10.0,38,28,19,0.00,40.00,11,5,23,0.00
2013-3-30,63.0,50.6,36.0,24.0,18.6,15.0,52,31,15,0.00,40.00,11,6,22,0.00
2013-3-31,66.0,50.9,36.0,25.0,18.4,11.0,54,31,13,0.00,40.00,10,5,21,0.00